Tracking 20232 objects as of 18-Jan-2020
HD Live streaming from Space Station
objects crossing your sky now

COSMOS 2251 DEB

Track COSMOS 2251 DEB now!
10-day predictions


NORAD ID: 34070
Int'l Code: 1993-036KH
Perigee: 726.5 km
Apogee: 783.1 km
Inclination: 74.0 °
Period: 99.8 minutes
Semi major axis: 7125 km
RCS: 0.019 m2 (small)
Launch date: June 16, 1993
Source: Commonwealth of Independent States (former USSR) (CIS)
Launch site: PLESETSK MISSILE AND SPACE COMPLEX (PKMTR)

Note: This is SATELLITE DEBRIS
aabbcc
Your satellite tracking list
Your tracking list is empty




NASA's NSSDC Master Catalog

Two Line Element Set (TLE):
1 34070U 93036KH  20018.03115750 +.00000575 +00000-0 +17683-3 0  9993
2 34070 074.0118 222.5903 0039691 132.1741 021.5712 14.43290869573275
Source of the keplerian elements: AFSPC